"Pseudo-MPEC" for JKt001

Created 2024 Dec 20 17:31:09 UT using Find_Orb

Click here for an explanation of pseudo-MPECs

 
 Astrometry: 
     JKt001  3C2024 11 28.61322412 50 07.334-02 04 31.91FixDup   23.4 rVNEOCPT09
     JKt001 *3C2024 11 28.61322412 50 07.334-02 04 31.91Duplicate23.4 rVNEOCPT09
     JKt001  3C2024 11 28.62444312 50 07.438-02 04 32.74   ~BT02 23.5 rVNEOCPT09
     JKt001  3C2024 11 28.63570112 50 07.538-02 04 33.38   ~BT02 23.7 rVNEOCPT09
     JKt001  3C2024 11 28.64692412 50 07.634-02 04 34.21   ~BT02 23.3 rVNEOCPT09
     JKt001  3C2024 11 29.64561512 50 16.575-02 05 37.61   ~BTGH 23.20GVNEOCPT14
     JKt001  3C2024 11 29.64716912 50 16.587-02 05 37.75   ~BTGH 23.19GVNEOCPT14
     JKt001  3C2024 11 29.64872512 50 16.611-02 05 37.76   ~BTGH 23.22GVNEOCPT14

Station data:
(T09) Mauna Kea-UH/Tholen NEO Follow-Up (Subaru)  (N19.825504 W155.476019)
   US/Hawaii.  Observer J. Kleyna. 8.2-m f/2.2 Subaru reflector.
(T14) Mauna Kea-UH/Tholen NEO Follow-Up (CFHT)  (N19.825252 W155.468876)
   US/Hawaii.  Observer R. Weryk. 3.6-m Canada-France-Hawaii Telescope.

Orbital elements:  JKt001
   Perihelion 2021 Nov 30.67251 +/- 2336 TT = 16:08:25 (JD 2459549.17251)
Epoch 2024 Nov 29.0 TT = JDT 2460643.5   Earth MOID: 0.1914   Ju: 0.7738
M  37.31078336 +/- 90               Sa: 0.0343                   AutoNEOCP
n   0.03409471 +/- 0.0611           Peri.   21.83875 +/- 60
a   9.41914196 +/- 11.3             Node   359.57827 +/- 17
e   0.8755989 +/- 0.198             Incl.  157.15516 +/- 60
P  28.90793                H 13.44  G  0.15   U 11.0  SR
q 1.17175083 +/- 4.75    Q 17.6665330 +/- 20.8            (J2000 ecliptic)
From 8 observations 2024 Nov. 28-29 (24.9 hr); mean residual 0".05
Residuals in arcseconds: 
241128 T09  .02-  .05+    241128 T09  .03+  .03+    241129 T14  .06-  .04-    
241128 T09  .02-  .05+    241128 T09  .02-  .07-    241129 T14  .10+  .04+    
241128 T09  .04+  .06-    241129 T14  .04-  .00     

Ephemerides (geocentric):
Date (UTC) HH   RA             Dec           delta  r     elong  mag " sig PA
---- --------  ------------   ------------  ------ ------ -----  --- --------
2024 12 20 18  12 52 06.537   -02 19 00.06  9.3449 9.1592  76.1 23.6 1098  66
2024 12 20 19  12 52 06.592   -02 19 00.57  9.3444 9.1594  76.2 23.6 1103  66
2024 12 20 20  12 52 06.646   -02 19 01.07  9.3439 9.1596  76.2 23.6 1107  66
2024 12 20 21  12 52 06.699   -02 19 01.57  9.3434 9.1598  76.3 23.6 1112  66
2024 12 20 22  12 52 06.752   -02 19 02.06  9.3429 9.1600  76.3 23.6 1117  66
2024 12 20 23  12 52 06.804   -02 19 02.55  9.3424 9.1602  76.3 23.6 1122  66
2024 12 21 00  12 52 06.856   -02 19 03.03  9.3419 9.1604  76.4 23.6 1126  66
2024 12 21 01  12 52 06.907   -02 19 03.51  9.3414 9.1607  76.4 23.6 1131  66
2024 12 21 02  12 52 06.957   -02 19 03.99  9.3409 9.1609  76.5 23.6 1136  66
2024 12 21 03  12 52 07.006   -02 19 04.46  9.3404 9.1611  76.5 23.6 1141  66
2024 12 21 04  12 52 07.055   -02 19 04.92  9.3398 9.1613  76.6 23.6 1146  66
2024 12 21 05  12 52 07.103   -02 19 05.38  9.3393 9.1615  76.6 23.6 1150  66
2024 12 21 06  12 52 07.150   -02 19 05.84  9.3388 9.1617  76.6 23.6 1155  66
2024 12 21 07  12 52 07.197   -02 19 06.29  9.3383 9.1619  76.7 23.6 1160  66
2024 12 21 08  12 52 07.243   -02 19 06.74  9.3378 9.1621  76.7 23.6 1165  66
2024 12 21 09  12 52 07.288   -02 19 07.19  9.3373 9.1623  76.8 23.6 1170  66
2024 12 21 10  12 52 07.333   -02 19 07.62  9.3368 9.1625  76.8 23.6 1175  66
2024 12 21 11  12 52 07.376   -02 19 08.06  9.3363 9.1628  76.9 23.6 1180  66
2024 12 21 12  12 52 07.420   -02 19 08.49  9.3358 9.1630  76.9 23.6 1185  66
2024 12 21 13  12 52 07.462   -02 19 08.91  9.3352 9.1632  76.9 23.6 1189  66
2024 12 21 14  12 52 07.504   -02 19 09.33  9.3347 9.1634  77.0 23.6 1194  66
2024 12 21 15  12 52 07.545   -02 19 09.75  9.3342 9.1636  77.0 23.6 1199  66
2024 12 21 16  12 52 07.585   -02 19 10.16  9.3337 9.1638  77.1 23.6 1204  66
2024 12 21 17  12 52 07.625   -02 19 10.57  9.3332 9.1640  77.1 23.6 1209  66
2024 12 21 18  12 52 07.664   -02 19 10.97  9.3327 9.1642  77.1 23.6 1214  66
2024 12 21 19  12 52 07.702   -02 19 11.37  9.3322 9.1644  77.2 23.6 1219  66
2024 12 21 20  12 52 07.740   -02 19 11.77  9.3317 9.1646  77.2 23.6 1224  66
2024 12 21 21  12 52 07.777   -02 19 12.16  9.3311 9.1649  77.3 23.6 1229  66
2024 12 21 22  12 52 07.813   -02 19 12.54  9.3306 9.1651  77.3 23.6 1234  66
2024 12 21 23  12 52 07.849   -02 19 12.92  9.3301 9.1653  77.4 23.6 1239  66
2024 12 22 00  12 52 07.884   -02 19 13.30  9.3296 9.1655  77.4 23.6 1244  66
2024 12 22 01  12 52 07.918   -02 19 13.67  9.3291 9.1657  77.4 23.6 1250  66
2024 12 22 02  12 52 07.951   -02 19 14.03  9.3286 9.1659  77.5 23.6 1255  66
2024 12 22 03  12 52 07.984   -02 19 14.40  9.3281 9.1661  77.5 23.6 1260  66
2024 12 22 04  12 52 08.016   -02 19 14.75  9.3276 9.1663  77.6 23.6 1265  66
2024 12 22 05  12 52 08.048   -02 19 15.11  9.3270 9.1665  77.6 23.6 1270  66
2024 12 22 06  12 52 08.078   -02 19 15.46  9.3265 9.1667  77.7 23.6 1275  66
2024 12 22 07  12 52 08.108   -02 19 15.80  9.3260 9.1670  77.7 23.6 1280  66
2024 12 22 08  12 52 08.138   -02 19 16.14  9.3255 9.1672  77.7 23.6 1285  66
2024 12 22 09  12 52 08.166   -02 19 16.48  9.3250 9.1674  77.8 23.6 1291  66
2024 12 22 10  12 52 08.194   -02 19 16.81  9.3245 9.1676  77.8 23.6 1296  66
2024 12 22 11  12 52 08.221   -02 19 17.13  9.3240 9.1678  77.9 23.6 1301  66
2024 12 22 12  12 52 08.248   -02 19 17.45  9.3235 9.1680  77.9 23.6 1306  66
2024 12 22 13  12 52 08.274   -02 19 17.77  9.3229 9.1682  78.0 23.6 1311  66
2024 12 22 14  12 52 08.299   -02 19 18.08  9.3224 9.1684  78.0 23.6 1317  66
2024 12 22 15  12 52 08.323   -02 19 18.39  9.3219 9.1686  78.0 23.6 1322  66
2024 12 22 16  12 52 08.347   -02 19 18.69  9.3214 9.1688  78.1 23.6 1327  66
2024 12 22 17  12 52 08.370   -02 19 18.99  9.3209 9.1691  78.1 23.6 1333  66